[[{"header":{"parameterUnit":"m.s-1","parameterCategory":1,"la1":30.2991,"la2":30.254,"lo1":-89.0895,"lo2":-89.0444,"dy":0.0017,"dx":0.0017,"nx":28,"ny":28,"refTime":"2025-12-19T03:00:00:Z","depth":0,"parameterNumber":2,"parameterNumberName":"U-component_of_WINDS"},"data":[0,0,0,0,0,0,0,0,0,0,0,0,0,0,0,0,0,0,0,0,0,0,0,0,0,0,0,0,0,0,0,0,0,0,0,0,0,0,0,0,0,0,0,0,0,0,0,0,0,0,0,0,0,0,0,0,0,0,-4.6964,-4.6965,0,-4.708,-4.7081,-4.7082,-4.7015,-4.7012,-4.7008,-4.7005,-4.7121,-4.7127,-4.7133,0,0,0,0,0,0,0,0,0,0,0,0,0,-4.6682,-4.6687,-4.6964,-4.6965,-4.6967,-4.708,-4.7081,-4.7083,-4.7016,-4.7012,-4.7008,-4.7004,-4.7119,-4.7126,-4.7133,0,0,0,0,0,0,0,0,0,0,0,0,0,-4.6802,-4.6689,-4.6964,-4.6947,-4.6947,-4.7079,-4.7081,-4.7083,-4.7016,-4.7011,-4.7007,-4.7002,-4.7116,-4.7125,-4.7134,-4.7289,0,0,-4.7162,-4.7166,0,0,0,0,0,0,0,0,-4.6795,-4.6812,-4.6948,-4.6948,-4.6948,-4.7028,-4.7024,-4.7152,-4.7018,-4.699,-4.7005,-4.7,-4.7094,-4.7104,-4.7137,-4.7295,-4.7299,-4.7163,-4.7169,-4.7173,-4.7175,0,0,0,0,0,0,0,-4.6787,-4.6807,-4.7009,-4.695,-4.695,-4.6933,-4.6944,-4.7048,-4.7068,-4.6992,-4.6987,-4.7002,-4.7093,-4.7128,-4.7139,-4.7301,-4.7163,-4.7171,-4.7177,-4.718,-4.7591,-4.7596,0,0,0,0,0,0,-4.678,-4.68,-4.7006,-4.7013,-4.6858,-4.6942,-4.6955,-4.7007,-4.7066,-4.7071,-4.7006,-4.6998,-4.7115,-4.7128,-4.7143,-4.7326,-4.7173,-4.7181,-4.7187,-4.7585,-4.7592,-4.7598,0,0,0,0,0,0,-4.6774,-4.6799,-4.7001,-4.6906,-4.693,-4.6952,-4.7011,-4.7012,-4.7047,-4.7077,-4.708,-4.7039,-4.7112,-4.713,-4.7253,-4.7329,-4.7185,-4.7194,-4.7579,-4.7587,-4.7595,-4.7694,0,0,0,0,0,0,-4.6766,-4.6797,-4.6857,-4.6907,-4.6935,-4.711,-4.7016,-4.7018,-4.7064,-4.7055,-4.7109,-4.7113,-4.7109,-4.724,-4.7262,-4.7339,-4.7201,-4.7572,-4.7583,-4.7592,-4.7684,-4.7705,-4.7722,0,0,0,0,0,-4.6757,-4.688,-4.686,-4.6885,-4.701,-4.7115,-4.7131,-4.7125,-4.707,-4.7129,-4.7149,-4.7111,-4.7318,-4.7253,-4.7278,-4.7358,-4.7567,-4.758,-4.7591,-4.7676,-4.7701,-4.7722,0,0,0,0,0,0,-4.6835,-4.6886,-4.6864,-4.7008,-4.7058,-4.7103,-4.7177,-4.7152,-4.7217,-4.7206,-4.7196,-4.7208,-4.7336,-4.736,-4.7287,-4.7511,-4.7434,-4.7452,-4.7489,-4.7514,-4.7532,-4.7522,-4.7209,0,0,0,0,0,-4.687,-4.6952,-4.6991,-4.7114,-4.714,-4.7155,-4.7201,-4.7192,-4.7243,-4.7263,-4.7292,-4.7341,-4.7418,-4.7468,-4.754,-4.7689,-4.7698,-4.7757,-4.7776,-4.7791,-4.7805,-4.7884,-4.791,-4.7637,-4.7637,-4.7637,0,0,-4.6941,-4.6979,-4.7031,-4.7131,-4.7168,-4.7252,-4.7173,-4.7265,-4.7326,-4.7277,-4.7394,-4.7418,-4.7473,-4.7609,-4.7671,-4.7633,-4.7884,-4.7807,-4.7819,-4.7824,-4.7899,-4.7925,-4.7948,-4.7646,-4.7644,-4.7643,0,0,-4.7112,-4.7151,-4.7256,-4.7296,-4.7354,-4.7364,-4.739,-4.744,-4.7454,-4.7572,-4.7536,-4.761,-4.7742,-4.7782,-4.7819,-4.8009,-4.7976,-4.8034,-4.8131,-4.8208,-4.8229,-4.8248,-4.8313,-4.8337,-4.8048,-4.8049,-4.8049,0,-4.7192,-4.7317,-4.7313,-4.7408,-4.7452,-4.7414,-4.7519,-4.7558,-4.7637,-4.7668,-4.7626,-4.7791,-4.7825,-4.797,-4.8016,-4.805,-4.8076,-4.8025,-4.8227,-4.8246,-4.8264,-4.8325,-4.835,-4.8055,-4.8054,-4.8053,-4.8053,0,-4.7412,-4.75,-4.7578,-4.7656,-4.771,-4.781,-4.7819,-4.7874,-4.7863,-4.7877,-4.7997,-4.8039,-4.8117,-4.8152,-4.8141,-4.8296,-4.827,-4.8228,-4.815,-4.8296,-4.8353,-4.8377,-4.8064,-4.8062,-4.806,-4.8058,0,0,-4.7631,-4.7708,-4.7736,-4.777,-4.7834,-4.7901,-4.8,-4.8078,-4.8124,-4.8182,-4.8262,-4.8376,-4.8338,-4.8381,-4.8375,-4.8444,-4.8588,-4.8393,-4.8394,-4.8424,-4.8758,-4.8785,-4.8813,-4.8569,-4.8573,-4.8577,-4.8752,0,-4.7803,-4.7975,-4.7975,-4.8134,-4.8213,-4.818,-4.8266,-4.8313,-4.833,-4.84,-4.8418,-4.8498,-4.8443,-4.8469,-4.8536,-4.8556,-4.8654,-4.8544,-4.8641,-4.8644,-4.8623,-4.8843,-4.8872,-4.9035,-4.8774,-4.8778,-4.8781,0,-4.8026,-4.8091,-4.8257,-4.8309,-4.8343,-4.842,-4.8491,-4.856,-4.8613,-4.8621,-4.8671,-4.8654,-4.8754,-4.8677,-4.8812,-4.8738,-4.8778,-4.8795,-4.8801,-4.8805,-4.8718,-4.8849,-4.9087,-4.911,-4.8817,-4.8814,-4.8811,0,-4.8164,-4.8294,-4.841,-4.8441,-4.8506,-4.856,-4.8589,-4.8639,-4.8686,-4.8749,-4.8779,-4.8854,-4.8893,-4.8951,-4.8955,-4.8899,-4.9091,-4.9015,-4.9098,-4.9097,-4.9135,-4.9131,-4.9378,-4.9169,-4.9169,-4.9168,-4.9168,0,-4.8353,-4.8455,-4.8473,-4.8543,-4.8657,-4.8657,-4.8769,-4.8794,-4.8838,-4.8913,-4.889,-4.896,-4.8963,-4.9035,-4.904,-4.915,-4.9169,-4.9176,-4.9175,-4.9175,-4.9174,-4.9198,-4.9185,-4.9175,-4.9174,-4.9172,-4.9171,0,-4.8524,-4.8541,-4.8664,-4.8716,-4.8732,-4.8813,-4.8856,-4.8924,-4.894,-4.9034,-4.9057,-4.9081,-4.9165,-4.9176,-4.9274,-4.9277,-4.9408,-4.9398,-4.939,-4.9386,-4.9467,-4.9458,-4.9733,-4.9768,-4.9541,-4.9543,-4.9545,0,-4.8641,-4.8719,-4.878,-4.8829,-4.8861,-4.894,-4.8989,-4.8993,-4.9044,-4.9113,-4.9171,-4.9253,-4.9318,-4.9453,-4.9479,-4.9553,-4.9542,-4.9634,-4.9552,-4.955,-4.9538,-4.9531,-4.9538,-4.9647,-4.965,-4.9652,-4.9653,0,-4.8846,-4.8851,-4.8922,-4.8997,-4.9056,-4.9115,-4.917,-4.9211,-4.9222,-4.9282,-4.9367,-4.9418,-4.9519,-4.9599,-4.9673,-4.9702,-4.9679,-4.968,-4.9702,-4.97,-4.9691,-4.9693,-4.9427,-4.9672,-4.967,-4.9669,-4.9668,-4.9667,-4.8991,-4.9058,-4.9111,-4.9191,-4.9234,-4.9287,-4.9352,-4.9378,-4.945,-4.9532,-4.9531,-4.9624,-4.9677,-4.9775,-4.981,-4.9882,-4.9852,-4.9885,-4.9893,-4.99,-4.9906,-4.9684,-4.9897,-4.9896,-4.9896,-4.9895,-4.9895,0,-4.919,-4.9224,-4.9298,-4.9377,-4.944,-4.9417,-4.9477,-4.9531,-4.9614,-4.9666,-4.9731,-4.9829,-4.9908,-4.9942,-5.0019,-5.0071,-5.0062,-5.009,-5.0084,-5.009,-4.993,-4.9901,-5.0096,-5.0096,-5.0096,-5.0096,-5.0096,-5.0096,-4.9301,-4.9413,-4.9425,-4.9557,-4.959,-4.9682,-4.9718,-4.9767,-4.9808,-4.9919,-4.9985,-5.0007,-5.0052,-5.0132,-5.0203,-5.0211,-5.0239,-5.0271,-5.0274,-5.0122,-5.0102,-5.0082,-5.0055,-5.0278,-5.0279,-5.0427,-5.0429,-5.043]},{"header":{"parameterUnit":"m.s-1","parameterCategory":1,"la1":30.2991,"la2":30.254,"lo1":-89.0895,"lo2":-89.0444,"dy":0.0017,"dx":0.0017,"nx":28,"ny":28,"refTime":"2025-12-19T03:00:00:Z","depth":0,"parameterNumber":3,"parameterNumberName":"V-component_of_WINDS"},"data":[0,0,0,0,0,0,0,0,0,0,0,0,0,0,0,0,0,0,0,0,0,0,0,0,0,0,0,0,0,0,0,0,0,0,0,0,0,0,0,0,0,0,0,0,0,0,0,0,0,0,0,0,0,0,0,0,0,0,2.2303,2.2303,0,2.2314,2.2314,2.2314,2.2241,2.2239,2.2237,2.2235,2.2244,2.2246,2.2248,0,0,0,0,0,0,0,0,0,0,0,0,0,2.2217,2.2219,2.2303,2.2303,2.2303,2.2314,2.2314,2.2314,2.2242,2.2239,2.2237,2.2234,2.2243,2.2246,2.2248,0,0,0,0,0,0,0,0,0,0,0,0,0,2.2244,2.2219,2.2303,2.2268,2.2265,2.2314,2.2314,2.2314,2.2242,2.2239,2.2236,2.2233,2.2242,2.2245,2.2249,2.233,0,0,2.2258,2.226,0,0,0,0,0,0,0,0,2.2242,2.2247,2.2273,2.2271,2.2267,2.2273,2.2287,2.232,2.2243,2.2251,2.2235,2.2232,2.2256,2.2258,2.2267,2.2331,2.2331,2.2259,2.2261,2.2262,2.2263,0,0,0,0,0,0,0,2.2241,2.2246,2.2307,2.2274,2.227,2.2252,2.2252,2.2293,2.227,2.225,2.2245,2.2247,2.2254,2.2264,2.2266,2.2331,2.2259,2.2262,2.2263,2.2265,2.2464,2.2467,0,0,0,0,0,0,2.2244,2.2245,2.2307,2.2307,2.2247,2.2256,2.2256,2.2274,2.227,2.2266,2.225,2.2244,2.226,2.2263,2.2266,2.2362,2.2262,2.2265,2.2267,2.246,2.2465,2.2468,0,0,0,0,0,0,2.2242,2.225,2.2306,2.2275,2.2281,2.2261,2.2282,2.2276,2.2286,2.227,2.2265,2.2264,2.2257,2.2262,2.2315,2.2361,2.2267,2.2269,2.2457,2.2462,2.2466,2.2554,0,0,0,0,0,0,2.224,2.225,2.2281,2.2276,2.2283,2.2356,2.2284,2.2279,2.2292,2.2284,2.2282,2.2279,2.2255,2.2311,2.2319,2.2364,2.2272,2.2452,2.2459,2.2465,2.2547,2.2562,2.2574,0,0,0,0,0,2.2237,2.2304,2.2283,2.229,2.2321,2.2359,2.2362,2.2335,2.2296,2.2327,2.2317,2.2279,2.2355,2.2317,2.2325,2.2372,2.2449,2.2457,2.2464,2.2541,2.2559,2.2574,0,0,0,0,0,0,2.2313,2.2303,2.2279,2.2346,2.2354,2.2346,2.2384,2.2354,2.2372,2.2364,2.2328,2.2329,2.2388,2.2385,2.2343,2.2452,2.2395,2.2405,2.2451,2.2468,2.2481,2.248,2.2275,0,0,0,0,0,2.2338,2.237,2.2359,2.2419,2.2425,2.2404,2.2419,2.2398,2.2404,2.2407,2.24,2.2407,2.2433,2.245,2.2473,2.2547,2.2545,2.2583,2.2597,2.2608,2.2616,2.2656,2.2673,2.2493,2.2493,2.2493,0,0,2.2388,2.2387,2.2409,2.2435,2.2438,2.2472,2.2407,2.2445,2.247,2.2412,2.2463,2.2459,2.2464,2.2528,2.2556,2.2528,2.2666,2.2618,2.2627,2.2629,2.2666,2.2683,2.2698,2.2498,2.2497,2.2496,0,0,2.2498,2.2501,2.2552,2.2558,2.2564,2.2551,2.2563,2.2561,2.2556,2.2607,2.2565,2.2593,2.2638,2.2644,2.2653,2.2768,2.2734,2.2776,2.2846,2.2886,2.29,2.2912,2.2954,2.2969,2.2785,2.2785,2.2785,0,2.256,2.261,2.2582,2.2624,2.2636,2.2588,2.2639,2.2646,2.2659,2.2669,2.2637,2.2694,2.2694,2.2759,2.2788,2.2797,2.281,2.2776,2.2901,2.2913,2.2924,2.2963,2.2979,2.279,2.279,2.2789,2.2789,0,2.2687,2.2722,2.2763,2.2779,2.2796,2.2843,2.2821,2.2842,2.282,2.281,2.2863,2.2861,2.2884,2.2898,2.2875,2.2961,2.2943,2.2907,2.2849,2.2947,2.2983,2.2998,2.2798,2.2796,2.2794,2.2793,0,0,2.2842,2.2845,2.286,2.2868,2.2873,2.2899,2.2944,2.2967,2.2986,2.2998,2.3034,2.3074,2.3041,2.3052,2.303,2.3065,2.3157,2.3024,2.3023,2.3049,2.3252,2.3279,2.3297,2.3135,2.3138,2.314,2.3252,0,2.295,2.3028,2.3005,2.3082,2.3115,2.3071,2.311,2.3117,2.3109,2.3135,2.3126,2.3156,2.3109,2.3116,2.3148,2.3139,2.3197,2.3131,2.3168,2.317,2.3168,2.3316,2.3345,2.345,2.3265,2.3268,2.327,0,2.3086,2.3105,2.3187,2.3189,2.3201,2.3237,2.3257,2.3283,2.3291,2.3283,2.3296,2.3267,2.3311,2.3255,2.3315,2.327,2.3284,2.3283,2.3286,2.3288,2.3225,2.3322,2.3483,2.3499,2.3292,2.329,2.3288,0,2.3192,2.3238,2.3293,2.3301,2.3304,2.3331,2.3333,2.3338,2.3354,2.3371,2.3381,2.3404,2.3416,2.3433,2.3412,2.3373,2.3475,2.3417,2.347,2.347,2.3492,2.3491,2.3658,2.3502,2.3502,2.3502,2.3501,0,2.3315,2.3366,2.3341,2.3375,2.3432,2.3405,2.3462,2.3459,2.3465,2.3497,2.3459,2.349,2.346,2.3489,2.3472,2.3525,2.353,2.3525,2.352,2.3528,2.3529,2.3536,2.3528,2.3506,2.3505,2.3504,2.3503,0,2.3442,2.3428,2.3485,2.3484,2.3485,2.3528,2.3526,2.3558,2.3548,2.359,2.3598,2.3582,2.3614,2.3595,2.3626,2.3615,2.3684,2.3669,2.3682,2.3678,2.3732,2.3727,2.3909,2.3931,2.3761,2.3763,2.3764,0,2.3521,2.356,2.3565,2.3585,2.359,2.3622,2.3639,2.3615,2.3634,2.3647,2.3677,2.3706,2.3727,2.378,2.3771,2.3795,2.378,2.3842,2.3783,2.3791,2.3781,2.3779,2.3783,2.3854,2.3856,2.3858,2.3859,0,2.3663,2.3655,2.3681,2.3707,2.3728,2.3746,2.3761,2.3779,2.3755,2.3778,2.3811,2.3828,2.3861,2.389,2.3912,2.3913,2.3882,2.3878,2.3891,2.39,2.3906,2.3904,2.3714,2.3873,2.3872,2.3871,2.387,2.387,2.3769,2.3802,2.3812,2.3843,2.3852,2.3867,2.3897,2.3892,2.392,2.3946,2.393,2.3969,2.3977,2.4002,2.4008,2.4038,2.4012,2.4032,2.4037,2.4042,2.405,2.3902,2.4041,2.4041,2.404,2.404,2.404,0,2.3909,2.3914,2.3943,2.3966,2.3991,2.3962,2.3977,2.4,2.4035,2.4046,2.4069,2.4107,2.4136,2.413,2.4156,2.4181,2.4168,2.4189,2.4186,2.4187,2.407,2.4056,2.4199,2.4199,2.4199,2.4199,2.4199,2.4199,2.3985,2.4041,2.4034,2.4094,2.4097,2.4136,2.4148,2.4162,2.417,2.4216,2.424,2.4237,2.4241,2.4268,2.4293,2.429,2.4301,2.4328,2.432,2.4211,2.4195,2.418,2.4167,2.433,2.4331,2.4435,2.4436,2.4436]}]]